Weather History for Thedford, NE

Change the Weather History Date:

Saturday, November 9, 2013

  Actual Average (KLBF) Record (KLBF)
Temperature  
Mean Temperature 44 °F 39 °F  
Max Temperature 58 °F 54 °F 78 °F (1999)
Min Temperature 31 °F 24 °F 6 °F (1890)
Degree Days  
Heating Degree Days 20 26  
Month to date heating degree days 218  
Since 1 July heating degree days 887  
Cooling Degree Days 0 0  
Month to date cooling degree days 0  
Year to date cooling degree days 768  
Moisture  
Dew Point 28 °F    
Average Humidity 62    
Maximum Humidity 87    
Minimum Humidity 32    
Precipitation  
Precipitation 0.00 in 0.03 in 0.88 in (1919)
Month to date precipitation 0.25  
Year to date precipitation 19.43  
Snow  
Snow 0.00 in 0.20 in 6.30 in (1919)
Month to date snowfall 1.1  
Since 1 July snowfall 3.4  
Since 1 September snowfall 3.4  
Snow Depth -    
Sea Level Pressure  
Sea Level Pressure 30.18 in    
Wind  
Wind Speed 4 mph (NW)    
Max Wind Speed 10 mph    
Max Gust Speed -    
Visibility 10 miles    
Events      
T = Trace of Precipitation, MM = Missing Value Source: NWS Daily Summary

Daily Weather History Graph

Daily Weather History Graph

Search for Another Location

Airport:

Trip Planner

Search our weather history database for the weather conditions in past years. The results will help you decide how hot, cold, wet, or windy it might be!

Date:

Astronomy

Nov. 09, 2013 Rise Set
Actual Time 7:25 AM CST 5:26 PM CST
Civil Twilight 6:55 AM CST 5:56 PM CST
Nautical Twilight 6:22 AM CST 6:29 PM CST
Astronomical Twilight 5:49 AM CST 7:02 PM CST
Moon 1:02 PM CST (11/9) No Moon Set
Length of Visible Light 11h 00m
Length of Day
10h 01m
Waxing Crescent, 44% of the Moon is Illuminated
Nov 9
Waxing Crescent
Nov 9
First Quarter
Nov 17
Full
Nov 25
Last Quarter
Dec 2
New

Hourly Weather History & Observations

Time (CST) Temp. Windchill Dew Point Humidity Pressure Visibility Wind Dir Wind Speed Gust Speed Precip Events Conditions
12:15 AM 32.0 °F 28.7 °F 28.4 °F 87% 29.99 in 10.0 mi WNW 3.5 mph - N/A   Clear
12:35 AM 32.2 °F 26.7 °F 28.4 °F 86% 30.00 in 10.0 mi WNW 5.8 mph - N/A   Clear
12:55 AM 34.0 °F 28.0 °F 28.9 °F 82% 30.01 in 10.0 mi WNW 6.9 mph - N/A   Clear
1:15 AM 34.7 °F 29.6 °F 29.3 °F 81% 30.01 in 10.0 mi WNW 5.8 mph - N/A   Clear
1:35 AM 35.6 °F 29.9 °F 29.5 °F 78% 30.02 in 10.0 mi WNW 6.9 mph - N/A   Clear
1:55 AM 35.2 °F 31.2 °F 29.3 °F 79% 30.02 in 10.0 mi WNW 4.6 mph - N/A   Clear
2:15 AM 34.7 °F 29.6 °F 29.1 °F 80% 30.03 in 10.0 mi WNW 5.8 mph - N/A   Scattered Clouds
2:35 AM 34.7 °F 28.8 °F 29.3 °F 81% 30.03 in 10.0 mi West 6.9 mph - N/A   Mostly Cloudy
2:55 AM 36.0 °F 33.3 °F 29.3 °F 77% 30.03 in 10.0 mi West 3.5 mph - N/A   Scattered Clouds
3:15 AM 35.6 °F - 29.3 °F 78% 30.04 in 10.0 mi Calm Calm - N/A   Scattered Clouds
3:35 AM 35.2 °F 32.4 °F 29.1 °F 78% 30.04 in 10.0 mi West 3.5 mph - N/A   Scattered Clouds
3:55 AM 34.3 °F - 28.4 °F 79% 30.04 in 10.0 mi Calm Calm - N/A   Clear
4:15 AM 32.4 °F - 28.0 °F 84% 30.05 in 10.0 mi Calm Calm - N/A   Scattered Clouds
4:35 AM 33.8 °F 30.8 °F 28.4 °F 81% 30.05 in 10.0 mi West 3.5 mph - N/A   Scattered Clouds
4:55 AM 32.5 °F 29.3 °F 27.5 °F 82% 30.05 in 10.0 mi WNW 3.5 mph - N/A   Clear
5:15 AM 33.4 °F 30.4 °F 28.4 °F 82% 30.07 in 10.0 mi WNW 3.5 mph - N/A   Clear
5:35 AM 32.0 °F 27.5 °F 27.7 °F 84% 30.07 in 10.0 mi WNW 4.6 mph - N/A   Clear
5:55 AM 32.0 °F - 27.7 °F 84% 30.08 in 10.0 mi Calm Calm - N/A   Clear
6:15 AM 33.1 °F 28.7 °F 27.9 °F 81% 30.09 in 10.0 mi West 4.6 mph - N/A   Clear
6:35 AM 32.9 °F 25.9 °F 28.2 °F 83% 30.10 in 10.0 mi WSW 8.1 mph - N/A   Clear
6:55 AM 33.3 °F 28.9 °F 27.3 °F 79% 30.11 in 10.0 mi SW 4.6 mph - N/A   Clear
7:15 AM 32.0 °F - 26.4 °F 80% 30.12 in 10.0 mi Calm Calm - N/A   Clear
7:35 AM 31.5 °F 28.1 °F 26.4 °F 82% 30.13 in 10.0 mi WSW 3.5 mph - N/A   Clear
7:55 AM 31.8 °F 28.5 °F 26.8 °F 82% 30.14 in 10.0 mi WNW 3.5 mph - N/A   Clear
8:15 AM 31.8 °F - 27.9 °F 85% 30.14 in 10.0 mi Calm Calm - N/A   Clear
8:35 AM 35.1 °F - 29.8 °F 81% 30.15 in 10.0 mi Calm Calm - N/A   Clear
8:55 AM 36.7 °F 34.1 °F 30.6 °F 78% 30.16 in 10.0 mi NW 3.5 mph - N/A   Clear
9:15 AM 39.7 °F 36.5 °F 30.9 °F 71% 30.17 in 10.0 mi WNW 4.6 mph - N/A   Clear
9:35 AM 43.0 °F 39.5 °F 31.3 °F 63% 30.17 in 10.0 mi West 5.8 mph - N/A   Clear
9:55 AM 45.5 °F 43.2 °F 31.6 °F 58% 30.17 in 10.0 mi WNW 4.6 mph - N/A   Clear
10:15 AM 48.0 °F - 31.5 °F 53% 30.19 in 10.0 mi WNW 3.5 mph - N/A   Clear
10:35 AM 50.2 °F - 30.4 °F 47% 30.20 in 10.0 mi West 3.5 mph - N/A   Clear
10:55 AM 51.8 °F - 29.1 °F 42% 30.20 in 10.0 mi North 3.5 mph - N/A   Scattered Clouds
11:15 AM 52.9 °F - 29.1 °F 40% 30.20 in 10.0 mi Calm Calm - N/A   Overcast
11:35 AM 53.4 °F - 28.0 °F 38% 30.20 in 10.0 mi Calm Calm - N/A   Overcast
11:55 AM 53.8 °F - 27.7 °F 37% 30.20 in 10.0 mi NNW 4.6 mph - N/A   Overcast
12:15 PM 53.6 °F - 26.8 °F 36% 30.20 in 10.0 mi Calm Calm - N/A   Mostly Cloudy
12:35 PM 53.8 °F - 26.6 °F 35% 30.20 in 10.0 mi Calm Calm - N/A   Scattered Clouds
12:55 PM 55.6 °F - 27.1 °F 34% 30.19 in 10.0 mi WNW 5.8 mph - N/A   Scattered Clouds
1:15 PM 55.9 °F - 27.1 °F 33% 30.19 in 10.0 mi WNW 3.5 mph - N/A   Scattered Clouds
1:35 PM 57.2 °F - 27.1 °F 32% 30.19 in 10.0 mi NNW 8.1 mph - N/A   Overcast
1:55 PM 58.1 °F - 27.9 °F 32% 30.19 in 10.0 mi North 9.2 mph - N/A   Overcast
2:15 PM 56.3 °F - 27.7 °F 33% 30.20 in 10.0 mi North 10.4 mph - N/A   Mostly Cloudy
2:35 PM 55.8 °F - 27.9 °F 34% 30.20 in 10.0 mi North 8.1 mph - N/A   Scattered Clouds
2:55 PM 55.9 °F - 27.5 °F 34% 30.20 in 10.0 mi North 10.4 mph - N/A   Clear
3:15 PM 55.9 °F - 27.5 °F 34% 30.21 in 10.0 mi NNW 9.2 mph - N/A   Clear
3:35 PM 55.4 °F - 27.5 °F 34% 30.21 in 10.0 mi NNW 10.4 mph - N/A   Clear
3:55 PM 54.9 °F - 28.2 °F 36% 30.22 in 10.0 mi North 9.2 mph - N/A   Clear
4:15 PM 54.7 °F - 27.9 °F 36% 30.22 in 10.0 mi North 4.6 mph - N/A   Clear
4:35 PM 53.2 °F - 29.1 °F 40% 30.23 in 10.0 mi North 8.1 mph - N/A   Clear
4:55 PM 52.0 °F - 29.1 °F 41% 30.24 in 10.0 mi North 9.2 mph - N/A   Clear
5:15 PM 49.8 °F - 29.3 °F 45% 30.25 in 10.0 mi North 4.6 mph - N/A   Clear
5:35 PM 47.1 °F - 29.3 °F 50% 30.25 in 10.0 mi North 4.6 mph - N/A   Clear
5:55 PM 45.0 °F 43.5 °F 29.5 °F 55% 30.26 in 10.0 mi North 3.5 mph - N/A   Clear
6:15 PM 44.1 °F 42.5 °F 29.3 °F 56% 30.27 in 10.0 mi North 3.5 mph - N/A   Clear
6:35 PM 43.2 °F - 29.3 °F 58% 30.28 in 10.0 mi Calm Calm - N/A   Clear
6:55 PM 42.8 °F - 28.4 °F 57% 30.29 in 10.0 mi Calm Calm - N/A   Clear
7:15 PM 41.5 °F - 28.0 °F 59% 30.29 in 10.0 mi Calm Calm - N/A   Clear
7:35 PM 39.9 °F - 28.4 °F 63% 30.30 in 10.0 mi Calm Calm - N/A   Clear
8:35 PM 38.3 °F - 28.4 °F 68% 30.31 in 10.0 mi Calm Calm - N/A   Clear
8:55 PM 38.3 °F 35.9 °F 28.4 °F 68% 30.31 in 10.0 mi NNE 3.5 mph - N/A   Clear
9:15 PM 38.5 °F 35.0 °F 27.5 °F 65% 30.32 in 10.0 mi NNE 4.6 mph - N/A   Clear
9:35 PM 37.6 °F - 27.9 °F 68% 30.32 in 10.0 mi Calm Calm - N/A   Mostly Cloudy
9:55 PM 38.3 °F - 27.3 °F 65% 30.33 in 10.0 mi Calm Calm - N/A   Overcast
10:15 PM 38.1 °F - 27.0 °F 64% 30.33 in 10.0 mi Calm Calm - N/A   Scattered Clouds
10:35 PM 36.9 °F 34.3 °F 26.6 °F 66% 30.33 in 10.0 mi ENE 3.5 mph - N/A   Scattered Clouds
10:55 PM 36.0 °F - 26.4 °F 68% 30.34 in 10.0 mi Calm Calm - N/A   Clear
11:15 PM 36.7 °F - 26.4 °F 66% 30.34 in 10.0 mi Calm Calm - N/A   Mostly Cloudy
11:35 PM 35.4 °F - 26.6 °F 70% 30.35 in 10.0 mi Calm Calm - N/A   Mostly Cloudy
11:55 PM 37.0 °F - 27.1 °F 67% 30.35 in 10.0 mi Calm Calm - N/A   Overcast